Weather Roundup
Issued by NWS

Home | Current Version | Previous Version | Graphics & Text | Print | Product List | Glossary Off
Versions: 1 2 3 4 5 6 7 8 9 10 11 12 13 14 15 16 17 18 19 20 21 22 23 24 25 26 27 28 29 30 31 32 33 34 35 36 37 38 39 40 41 42 43 44 45 46 47 48 49 50

939
NZUS93 KARX 260859
HRRWXR

CURRENT HOURLY OBSERVATIONS ACROSS
MUCH OF THE UPPER MISSISSIPPI VALLEY
NATIONAL WEATHER SERVICE LA CROSSE WI
400 AM CDT THU MAY 26 2016


...SOUTHEAST MINNESOTA...


CITY           SKY/WX    TMP DP  RH WIND       PRES   REMARKS
ROCHESTER      TSTM      57  55  93 NW28G41   29.86R VSB 3/4
ROCHESTER/MAYO PTSUNNY   62  55  78 W31G46    29.80S
WINONA         CLOUDY    63  61  94 CALM      29.79S FOG
AUSTIN         TSTM      59  54  82 NW10G21   29.78F
ALBERT LEA     CLOUDY    57  57 100 N5        29.83R
DODGE CENTER   TSTM      57  55  94 NW21G26   29.83R
PRESTON        CLOUDY    64  59  86 SE3       29.80S
OWATONNA       RAIN      57  55  94 N6        29.83F
FARIBAULT      CLOUDY    59  57  94 CALM      29.86R
$$

...ELSEWHERE IN MINNESOTA...


CITY           SKY/WX    TMP DP  RH WIND       PRES   REMARKS
MINNEAPOLIS    TSTM      62  56  80 SE17      29.78F
INTNL FALLS    MOCLDY    55  50  83 E7        29.75F
DULUTH         FOG       44  44 100 E8        29.82F VSB 1/4
RED WING       CLOUDY    66  61  82 NW16G26   29.79R
REDWOOD FALLS  CLOUDY    63  55  75 E5        29.74F
MANKATO        CLOUDY    61  55  82 E8        29.77F
WORTHINGTON    CLOUDY    60  55  83 W7        29.80S
FAIRMONT       CLOUDY    61  48  63 E13       29.77F
$$

...SOUTHWEST WISCONSIN...


CITY           SKY/WX    TMP DP  RH WIND       PRES   REMARKS
LA CROSSE      CLOUDY    64  61  90 SE7       29.78F
PRAIRIE DU CHI CLOUDY    62  59  90 CALM      29.81R
BOSCOBEL       FOG       61  60  97 CALM      29.81F VSB 1/4
LONE ROCK      NOT AVBL
PLATTEVILLE    CLOUDY    66  60  82 S13       29.83F
FORT MC COY    FOG       54  54 100 CALM      29.82F VSB 3/4
CAMP DOUGLAS   FOG       59  59 100 S3        29.82S VSB 1/4
MAUSTON-NEW LI FOG       58  58 100 CALM      29.81F VSB 1/2
VIROQUA        FAIR      65  60  85 SE5       29.83S
WIS DELLS      CLOUDY    61  60  95 CALM      29.82F
$$

...ELSEWHERE IN WISCONSIN...


CITY           SKY/WX    TMP DP  RH WIND       PRES   REMARKS
MILWAUKEE      CLOUDY    64  63  96 S7        29.87F FOG
MADISON        CLOUDY    65  63  93 S7        29.83F
GREEN BAY      MOCLDY    59  58  96 S3        29.82F FOG
EAU CLAIRE     NOT AVBL
BLACK RVR FLS  FOG       56  56 100 CALM      29.80F VSB 1/4
MEDFORD        FOG       61  61 100 CALM      29.82F VSB 1/4
WAUSAU         FOG       63 N/A N/A S5        29.81F VSB 1/2
WIS RAPIDS     FOG       61  59  93 CALM      29.82F VSB 1/4
MARSHFIELD     FOG       62  60  93 S5        29.81F VSB 1/4
RICE LAKE      FOG       58  57  96 E5        29.82F VSB<1/4
$$

...NORTHEAST IOWA...


CITY           SKY/WX    TMP DP  RH WIND       PRES   REMARKS
WATERLOO       CLOUDY    69  61  75 S7        29.80R
DUBUQUE        MOCLDY    65  60  84 S6        29.83F
DECORAH        CLOUDY    64  61  88 SE5       29.80S
MASON CITY     LGT RAIN  58  56  93 N13       29.86F
CHARLES CITY   CLOUDY    66  59  77 NW23G32   29.84R
OELWEIN        CLOUDY    68  61  77 S8        29.81S
$$

...ELSEWHERE IN IOWA...


CITY           SKY/WX    TMP DP  RH WIND       PRES   REMARKS
DES MOINES     TSTM      65  58  78 W12       29.93R
IOWA CITY      CLOUDY    73  63  70 S10       29.87R
FORT DODGE     CLOUDY    57  54  88 CALM      29.91F
MARSHALLTOWN   TSTM      68  58  70 SW25G35   29.91R
CEDAR RAPIDS   TSTM      71  65  81 SW21G29   29.85
$$

...NORTHERN ILLINOIS...


CITY           SKY/WX    TMP DP  RH WIND       PRES   REMARKS
CHICAGO-OHARE  CLEAR     64  63  96 S7        29.89F
CHICAGO-MIDWAY CLEAR     69  64  84 S9        29.90F
MOLINE         MOCLDY    73  63  70 S7        29.84F
ROCKFORD       PTCLDY    65  63  93 S6        29.89F
PEORIA         CLOUDY    69  65  86 S8        29.91S
$$

NOTE: "FAIR" INDICATES FEW OR NO CLOUDS BELOW 12,000 FEET WITH NO
SIGNIFICANT WEATHER AND/OR OBSTRUCTIONS TO VISIBILITY. WIND
SPEEDS ARE IN MILES-PER-HOUR.




USA.gov is the U.S. government's official web portal to all federal, state and local government web resources and services.